Location: Byszew
(52.1813°N, 19.2693°E)
Time: 17:17:09
(UTC+00:00)

SPROUT - Pass Details

Date: 02 July 2022
Orbit: 588 x 598 km, 97.9° (Epoch: 09 August)

Event Time Altitude Azimuth Distance (km) Brightness Sun altitude
Exits shadow 21:27:09 - 102° (ESE) 2,748 ? -12.8°
Reaches altitude 10° 21:30:47 10° 66° (ENE) 1,926 ? -13.0°
Maximum altitude 21:31:46 11° 52° (NE) 1,877 ? -13.0°
Drops below altitude 10° 21:32:47 10° 38° (NE) 1,929 ? -13.1°
Sets 21:36:39 0° 1° (N) 2,839 ? -13.3°
